This demonstration page uses our WeatherBlox Daily Observations layout. Learn more.

Left ArrowRight Arrow

Hourly Observations for September 27, 2022

Temp ( °F °C ) Dew Point ( °F °C ) Humidity (%) Winds ( mph kmh ) Pressure ( in mb ) Visibility ( mi km ) Precip ( " mm )
12:53 am 00:53 Clear 66 18.9 52 11.1 61 61 Calm 30.10 1019 10 16 0.00 0.00
1:53 am 01:53 Clear 65 18.3 52 11.1 63 63 Calm 30.10 1019 10 16 0.00 0.00
2:53 am 02:53 Clear 64 17.8 51 10.6 63 63 Calm 30.10 1019 10 16 0.00 0.00
3:53 am 03:53 Clear 63 17.2 51 10.6 65 65 Calm 30.09 1019 10 16 0.00 0.00
4:53 am 04:53 Mostly Clear 62 16.7 51 10.6 67 67 Calm 30.09 1019 10 16 0.00 0.00
5:53 am 05:53 Mostly Clear 61 16.1 50 10 67 67 Calm 30.09 1019 10 16 0.00 0.00
6:53 am 06:53 Mostly Clear 61 16.1 51 10.6 70 70 Calm 30.11 1020 10 16 0.00 0.00
7:53 am 07:53 Mostly Sunny 63 17.2 52 11.1 67 67 Calm 30.13 1020 10 16 0.00 0.00
8:53 am 08:53 Mostly Sunny 71 21.7 51 10.6 49 49 Calm 30.14 1021 10 16 0.00 0.00
9:53 am 09:53 Mostly Sunny 76 24.4 43 6.1 31 31 ESE 5 7 30.16 1021 10 16 0.00 0.00
10:53 am 10:53 Sunny 79 26.1 43 6.1 28 28 ESE 6 9 30.17 1022 10 16 0.00 0.00
11:53 am 11:53 Sunny 82 27.8 40 4.4 22 22 SE 5 7 30.17 1022 10 16 0.00 0.00
12:53 pm 12:53 Mostly Sunny 85 29.4 41 5 21 21 SE 6 9 30.15 1021 10 16 0.00 0.00
1:53 pm 13:53 Sunny 85 29.4 41 5 21 21 Calm 30.13 1020 10 16 0.00 0.00
2:53 pm 14:53 Sunny 87 30.6 44 6.7 22 22 SW 3 6 30.10 1019 10 16 0.00 0.00
3:53 pm 15:53 Sunny 88 31.1 44 6.7 22 22 E 6 9 30.08 1019 10 16 0.00 0.00
4:53 pm 16:53 Sunny 88 31.1 44 6.7 22 22 E 5 7 30.07 1018 10 16 0.00 0.00
5:53 pm 17:53 Sunny 87 30.6 45 7.2 23 23 SE 10 17 30.08 1019 10 16 0.00 0.00
6:53 pm 18:53 Sunny 84 28.9 46 7.8 27 27 S 8 13 30.09 1019 10 16 0.00 0.00
7:53 pm 19:53 Clear 82 27.8 46 7.8 28 28 S 6 9 30.09 1019 10 16 0.00 0.00
8:53 pm 20:53 Clear 79 26.1 48 8.9 34 34 ESE 3 6 30.10 1019 10 16 0.00 0.00
9:53 pm 21:53 Clear 78 25.6 48 8.9 35 35 SE 5 7 30.12 1020 10 16 0.00 0.00
10:53 pm 22:53 Clear 78 25.6 48 8.9 35 35 SE 8 13 30.13 1020 10 16 0.00 0.00
11:53 pm 23:53 Clear 75 23.9 48 8.9 38 38 ESE 7 11 30.14 1021 10 16 0.00 0.00

Powered by AerisWeather